Theta_e
316 316 315 314 314 313 311 311 316 319 319 318 317 316 316 315 315 318 317 315 313 309 308 308 309 310 311 315 312 309 312 327
330 328 326 328 327 315 312 311 312 314 315 315 321 329 326 326 320 316 315 314 312 311 310 309 309 309 309 309 307 308 321 324
330 331 331 329 328 324 323 319 328 324 327 323 329 328 329 326 322 323 323 321 320 314 314 312 311 313 318 316 315 319 321 321
331 331 331 328 325 325 328 327 328 328 329 328 330 327 325 325 326 325 325 323 322 324 322 319 319 319 318 318 318 319 319 314
331 331 329 331 325 326 328 328 328 330 329 326 328 325 328 326 326 325 324 322 323 323 321 322 321 319 314 317 318 315 313 316
331 329 322 322 327 326 326 326 328 327 329 328 328 327 326 326 324 324 322 322 321 321 321 321 320 321 320 319 317 313 312 315
329 331 331 324 320 325 323 324 328 328 327 328 325 318 324 320 320 320 320 320 319 319 319 318 319 319 319 317 316 314 314 311
330 332 333 326 325 323 321 326 327 326 326 325 322 313 316 315 317 318 319 319 318 316 317 318 318 318 318 316 316 314 312 311
328 332 333 331 325 325 324 324 322 322 322 321 317 315 316 315 316 317 319 318 317 316 317 318 318 317 317 317 316 315 313 311
329 331 333 333 328 325 323 323 322 321 320 320 320 319 318 316 315 316 317 318 316 318 317 317 318 317 317 317 316 315 314 312
329 329 331 331 331 326 324 322 320 321 320 320 319 319 317 317 316 316 316 317 317 317 317 317 317 317 317 317 317 316 315 313
328 329 331 332 329 326 323 321 320 320 319 317 317 316 316 315 313 313 313 314 314 314 315 315 316 316 315 316 316 315 315 315
327 329 328 328 326 323 321 320 318 318 316 316 316 316 315 314 314 314 313 312 312 312 311 311 311 314 315 316 315 314 316 317
320 321 321 319 317 317 317 317 316 316 316 317 315 315 315 314 312 311 310 309 309 308 308 310 311 312 313 314 314 313 313 313
318 317 317 315 315 316 316 316 315 316 316 315 315 315 314 311 309 308 306 306 307 307 304 306 308 309 310 311 312 312 312 312
317 317 316 316 314 315 316 315 316 316 315 312 312 311 308 307 306 305 305 305 305 305 306 307 307 307 307 308 309 309 309 309
317 316 316 315 314 314 313 313 312 311 310 309 308 307 307 306 305 304 303 303 302 305 306 306 306 307 306 305 305 304 305 306
317 316 316 315 314 313 312 311 310 309 308 308 307 307 306 304 302 301 302 303 304 305 305 302 302 301 301 299 299 299 299 299
317 316 315 314 312 312 311 310 310 309 308 308 307 306 303 302 301 301 303 303 301 301 300 300 300 299 298 297 297 297 297 297
314 315 314 312 311 310 310 310 310 308 307 307 306 304 301 301 301 301 300 299 299 299 299 299 297 297 297 295 295 295 295 294
Wind_Speed
11 9 8 7 7 8 8 7 6 6 6 6 5 5 7 7 6 5 7 7 8 9 9 9 9 9 8 8 8 7 3 1
5 6 6 7 8 9 6 7 7 7 7 7 9 10 14 13 9 13 11 10 10 10 10 10 11 10 10 10 9 6 3 3
8 10 7 3 5 8 6 8 10 9 8 11 9 12 9 12 16 17 17 15 16 14 13 13 13 10 11 13 10 3 4 7
9 4 5 6 2 6 8 8 5 7 6 9 5 6 4 10 13 17 16 18 20 14 20 17 10 9 11 12 10 8 13 10
8 9 6 7 1 2 2 3 3 3 6 0 1 5 6 9 11 11 14 14 15 16 20 15 14 17 16 13 14 16 14 9
8 6 5 7 5 1 4 3 2 3 5 9 1 1 5 6 5 9 6 10 11 13 13 14 18 19 19 20 19 17 16 12
12 9 4 2 3 2 3 5 1 6 2 6 7 1 6 5 7 7 7 8 9 11 14 15 15 16 17 18 21 21 17 18
12 8 7 5 5 5 0 3 2 4 2 7 10 4 5 6 8 8 7 8 12 16 18 17 17 17 18 17 22 25 22 19
11 10 8 8 4 3 1 4 5 3 4 10 7 5 6 9 9 10 10 13 16 17 17 19 20 20 22 22 21 25 26 22
12 9 7 8 5 6 3 5 7 5 7 7 9 12 11 12 12 13 15 18 21 19 21 22 22 24 26 25 26 26 27 28
5 7 9 9 7 7 7 9 6 1 7 5 8 8 8 14 16 15 17 21 22 22 25 25 26 26 28 28 28 28 30 30
6 3 3 6 10 6 7 8 6 7 5 9 14 14 16 17 18 28 25 23 24 25 26 28 31 32 33 34 34 35 35 33
6 7 11 8 3 5 9 7 7 7 7 13 15 11 20 23 28 30 26 25 23 26 28 29 31 28 31 33 34 35 34 34
8 1 3 5 1 5 6 8 9 8 9 10 15 14 20 25 23 23 21 25 28 27 24 26 27 26 27 31 34 35 30 30
9 7 5 3 4 2 3 3 6 10 12 18 21 20 20 17 18 20 21 23 25 26 27 27 30 29 25 27 31 30 30 28
7 5 4 7 7 4 7 8 10 15 19 16 18 17 18 16 19 20 22 24 27 31 24 25 28 33 29 24 26 29 23 28
6 5 8 9 11 12 13 12 15 14 14 17 17 14 17 20 21 23 27 30 26 19 20 21 21 22 23 27 32 34 34 24
5 6 7 10 13 13 12 14 15 15 16 16 15 20 21 23 25 27 26 20 21 22 22 27 27 30 27 29 28 27 27 28
7 9 10 11 12 12 13 14 14 15 17 19 22 24 27 28 26 23 24 24 27 27 26 25 22 24 32 29 23 22 22 20
9 10 13 14 14 15 13 13 16 17 18 22 25 25 23 22 22 22 26 26 24 23 23 24 29 24 19 16 15 13 13 15
Wind_Direction
118 105 94 80 59 42 41 49 50 49 54 51 40 29 15 4 357 9 359 348 343 341 340 340 340 335 330 326 327 329 331 135
96 61 49 42 26 33 46 50 50 54 48 43 46 40 15 1 11 357 350 342 338 333 333 333 333 330 331 331 331 341 67 291
124 138 116 34 2 10 43 59 52 49 46 53 53 42 3 347 351 357 355 351 347 336 338 337 337 342 347 345 349 40 340 272
155 119 166 133 146 3 11 27 18 44 23 47 42 323 322 346 355 348 346 350 351 348 337 338 343 342 334 321 320 313 272 273
171 175 156 136 131 126 248 342 29 328 351 230 299 8 345 359 342 342 340 344 341 332 333 331 317 299 284 267 257 268 280 278
177 167 148 131 145 93 113 150 199 59 245 330 291 278 280 286 289 280 320 315 316 312 314 308 306 314 316 308 297 288 280 258
188 184 176 236 102 218 199 183 240 226 253 278 295 255 272 304 306 337 318 325 318 301 291 288 290 290 296 297 293 290 276 282
176 183 224 222 151 274 239 349 183 11 261 258 292 319 314 333 317 324 328 307 295 302 312 316 311 302 300 281 284 288 291 261
201 198 232 227 228 265 214 224 272 205 258 286 285 290 293 304 313 307 309 294 292 304 295 291 292 292 289 289 288 289 290 290
200 197 212 250 202 241 211 237 263 244 257 253 280 300 304 303 298 292 292 286 298 298 291 293 292 289 288 284 282 278 277 279
186 220 223 227 244 245 256 261 287 287 235 275 253 248 270 281 293 296 295 294 298 297 295 292 290 288 288 287 288 284 278 271
221 216 222 205 208 248 265 273 297 274 271 251 265 278 290 293 313 318 311 298 292 287 286 284 285 287 286 283 282 273 269 270
145 201 227 201 207 234 235 227 243 255 267 285 283 294 291 301 306 303 287 286 284 282 284 287 286 286 289 286 283 282 275 274
99 156 201 140 271 260 299 296 304 301 319 275 316 301 285 289 302 305 302 294 294 296 297 298 294 292 288 289 290 289 287 284
79 61 25 12 102 302 277 289 290 298 291 278 283 286 295 304 300 305 307 304 302 295 301 295 297 292 289 285 291 285 295 283
66 57 39 337 336 299 285 311 291 282 291 294 294 290 304 292 302 304 299 296 294 300 295 284 284 289 293 285 275 284 309 301
42 39 356 334 341 331 328 314 305 303 302 301 306 301 291 302 297 298 300 303 311 303 287 285 287 284 286 294 287 282 282 295
7 356 337 331 322 320 318 311 315 314 316 313 309 300 307 308 308 309 306 293 284 283 288 297 292 293 289 304 298 303 302 300
339 330 326 321 316 316 313 309 309 310 310 313 305 309 314 310 312 297 290 292 296 295 294 294 294 293 306 304 297 295 295 299
325 319 327 326 326 325 305 301 310 306 309 303 304 308 309 301 302 303 305 308 303 301 307 307 309 302 305 314 314 313 310 308